Montgomery, NY

2:01 AM EST on December 10, 2016 (GMT -0500)
Orange County

Weather History for KMGJ - May, 2012

Change the Weather History Date:

Wednesday, May 2, 2012

  Actual Average (KSWF) Record (KSWF)
Temperature  
Mean Temperature 53 °F -  
Max Temperature 54 °F 64 °F 89 °F (2001)
Min Temperature 51 °F 43 °F 28 °F (1974)
Degree Days  
Heating Degree Days 12    
Growing Degree Days 3 (Base 50)    
Moisture  
Dew Point 49 °F    
Average Humidity 87    
Maximum Humidity 94    
Minimum Humidity 77    
Precipitation  
Precipitation 0.04 in - - ()
Sea Level Pressure  
Sea Level Pressure 30.13 in    
Wind  
Wind Speed 4 mph (SE)    
Max Wind Speed 8 mph    
Max Gust Speed -    
Visibility 10 miles    
Events Rain    
Averages and records for this station are not official NWS values.
T = Trace of Precipitation, MM = Missing Value Source: NWS Daily Summary

Daily Weather History Graph

Daily Weather History Graph

Search for Another Location

Airport or City:

Trip Planner

Search our weather history database for the weather conditions in past years. The results will help you decide how hot, cold, wet, or windy it might be!

Date:

Astronomy

May. 02, 2012 Rise Set
Actual Time 5:52 AM EDT 7:56 PM EDT
Civil Twilight 5:21 AM EDT 8:26 PM EDT
Nautical Twilight 4:44 AM EDT 9:04 PM EDT
Astronomical Twilight 4:04 AM EDT 9:44 PM EDT
Moon 4:03 PM EDT (5/2) 3:23 AM EDT (5/2)
Length of Visible Light 15h 04m
Length of Day
14h 04m
Waxing Gibbous, 83% of the Moon is Illuminated
May 2
Waxing Gibbous
May 5
Full
May 12
Last Quarter
May 20
New
May 28
First Quarter

Hourly Weather History & Observations

Time (EDT) Temp. Dew Point Humidity Pressure Visibility Wind Dir Wind Speed Gust Speed Precip Events Conditions
12:54 AM 55.0 °F 51.1 °F 86% 30.09 in 10.0 mi NNE 8.1 mph - N/A   Overcast
1:03 AM 53.6 °F 51.8 °F 94% 30.08 in 10.0 mi NNE 5.8 mph - N/A   Overcast
1:36 AM 53.6 °F 51.8 °F 94% 30.08 in 10.0 mi ENE 3.5 mph - N/A   Mostly Cloudy
1:54 AM 53.1 °F 51.1 °F 93% 30.08 in 10.0 mi Calm Calm - N/A   Scattered Clouds
2:09 AM 51.8 °F 50.0 °F 94% 30.08 in 10.0 mi North 3.5 mph - N/A   Mostly Cloudy
2:54 AM 54.0 °F 51.1 °F 90% 30.07 in 10.0 mi NE 3.5 mph - N/A   Overcast
3:07 AM 53.6 °F 51.8 °F 94% 30.08 in 10.0 mi NNE 3.5 mph - N/A   Overcast
3:54 AM 54.0 °F 52.0 °F 93% 30.09 in 10.0 mi Calm Calm - N/A   Overcast
4:54 AM 54.0 °F 51.1 °F 90% 30.09 in 10.0 mi ESE 4.6 mph - N/A   Overcast
5:54 AM 53.1 °F 51.1 °F 93% 30.11 in 10.0 mi SE 5.8 mph - N/A   Overcast
6:54 AM 52.0 °F 50.0 °F 93% 30.12 in 10.0 mi Calm Calm - N/A   Overcast
7:54 AM 52.0 °F 48.9 °F 89% 30.12 in 10.0 mi East 5.8 mph - 0.00 in Rain Light Rain
8:39 AM 51.8 °F 48.2 °F 88% 30.14 in 10.0 mi East 3.5 mph - 0.00 in Rain Light Rain
8:54 AM 52.0 °F 48.9 °F 89% 30.14 in 10.0 mi East 3.5 mph - 0.00 in   Overcast
9:54 AM 52.0 °F 48.0 °F 86% 30.16 in 10.0 mi SE 5.8 mph - 0.00 in Rain Light Rain
10:54 AM 52.0 °F 48.9 °F 89% 30.15 in 7.0 mi SSE 5.8 mph - 0.01 in Rain Light Rain
11:54 AM 53.1 °F 48.9 °F 86% 30.17 in 10.0 mi Calm Calm - 0.02 in Rain Light Rain
12:12 PM 53.6 °F 48.2 °F 82% 30.16 in 10.0 mi Calm Calm - 0.00 in Rain Light Rain
12:32 PM 53.6 °F 50.0 °F 88% 30.13 in 8.0 mi South 6.9 mph - 0.00 in Rain Light Rain
12:54 PM 54.0 °F 48.9 °F 83% 30.14 in 10.0 mi SSE 4.6 mph - 0.01 in   Overcast
1:11 PM 53.6 °F 48.2 °F 82% 30.15 in 10.0 mi Calm Calm - N/A   Overcast
1:54 PM 53.1 °F 48.0 °F 83% 30.17 in 10.0 mi South 3.5 mph - N/A   Overcast
2:54 PM 53.1 °F 48.0 °F 83% 30.16 in 10.0 mi SSE 3.5 mph - N/A   Overcast
3:19 PM 53.6 °F 48.2 °F 82% 30.15 in 10.0 mi SE 6.9 mph - N/A   Overcast
3:52 PM 53.6 °F 48.2 °F 82% 30.14 in 10.0 mi SSE 5.8 mph - N/A   Overcast
3:54 PM 53.1 °F 48.0 °F 83% 30.15 in 10.0 mi SE 5.8 mph - N/A   Overcast
4:30 PM 53.6 °F 48.2 °F 82% 30.14 in 10.0 mi SE 5.8 mph - N/A   Overcast
4:54 PM 53.1 °F 46.9 °F 80% 30.16 in 10.0 mi SSE 4.6 mph - N/A   Overcast
5:54 PM 53.1 °F 46.9 °F 80% 30.16 in 10.0 mi South 4.6 mph - N/A   Overcast
6:15 PM 53.6 °F 46.4 °F 77% 30.15 in 10.0 mi SSE 4.6 mph - N/A   Overcast
6:54 PM 52.0 °F 46.9 °F 83% 30.15 in 10.0 mi SE 5.8 mph - N/A   Overcast
7:54 PM 51.1 °F 46.9 °F 86% 30.15 in 10.0 mi SE 4.6 mph - N/A   Overcast
8:18 PM 51.8 °F 46.4 °F 82% 30.15 in 10.0 mi SSE 5.8 mph - N/A   Overcast
8:31 PM 51.8 °F 46.4 °F 82% 30.15 in 10.0 mi South 4.6 mph - N/A   Overcast
8:54 PM 51.1 °F 48.0 °F 89% 30.15 in 10.0 mi SSE 4.6 mph - N/A   Overcast
9:54 PM 51.1 °F 48.0 °F 89% 30.15 in 10.0 mi South 4.6 mph - N/A   Overcast
10:54 PM 51.1 °F 48.0 °F 89% 30.15 in 7.0 mi South 4.6 mph - N/A   Overcast
11:54 PM 51.1 °F 48.0 °F 89% 30.15 in 8.0 mi South 3.5 mph - N/A   Overcast